Ladysmith, WI

4:52 AM CST on December 14, 2017 (GMT -0600)
Rusk County

Weather History for KRCX - March, 2013

Change the Weather History Date:

Saturday, March 9, 2013

  Actual Average (KPBH) Record (KPBH)
Temperature  
Mean Temperature 32 °F -  
Max Temperature 35 °F 29 °F 48 °F (2009)
Min Temperature 30 °F 10 °F -11 °F (2003)
Degree Days  
Heating Degree Days 32    
Moisture  
Dew Point 31 °F    
Average Humidity 91    
Maximum Humidity 100    
Minimum Humidity 69    
Precipitation  
Precipitation 0.35 in - - ()
Sea Level Pressure  
Sea Level Pressure 29.90 in    
Wind  
Wind Speed 8 mph (SE)    
Max Wind Speed 14 mph    
Max Gust Speed 21 mph    
Visibility 4 miles    
Events Rain , Snow    
Averages and records for this station are not official NWS values.
T = Trace of Precipitation, MM = Missing Value Source: NWS Daily Summary

Daily Weather History Graph

Daily Weather History Graph

Search for Another Location

Airport or City:

Trip Planner

Search our weather history database for the weather conditions in past years. The results will help you decide how hot, cold, wet, or windy it might be!

Date:

Astronomy

Mar. 09, 2013 Rise Set
Actual Time 6:27 AM CST 6:02 PM CST
Civil Twilight 5:57 AM CST 6:31 PM CST
Nautical Twilight 5:23 AM CST 7:06 PM CST
Astronomical Twilight 4:48 AM CST 7:40 PM CST
Moon 4:56 AM CST (3/9) 4:00 PM CST (3/9)
Length of Visible Light 12h 34m
Length of Day
11h 35m
Waning Crescent, 5% of the Moon is Illuminated
Mar 9
Waning Crescent
Mar 11
New
Mar 19
First Quarter
Mar 27
Full
Apr 2
Last Quarter

Hourly Weather History & Observations

Time (CST) Temp. Windchill Dew Point Humidity Pressure Visibility Wind Dir Wind Speed Gust Speed Precip Events Conditions
12:15 AM 32.0 °F 26.4 °F 24.8 °F 75% 30.18 in 10.0 mi SE 5.8 mph - N/A   Clear
12:35 AM 32.0 °F 25.6 °F 24.8 °F 75% 30.17 in 10.0 mi SE 6.9 mph - N/A   Clear
1:15 AM 32.0 °F 24.2 °F 24.8 °F 75% 30.15 in 10.0 mi SE 9.2 mph - N/A   Clear
1:35 AM 32.0 °F 23.6 °F 23.0 °F 69% 30.15 in 10.0 mi SE 10.4 mph - N/A   Clear
2:15 AM 32.0 °F 25.6 °F 24.8 °F 75% 30.13 in 10.0 mi SE 6.9 mph - N/A   Clear
2:35 AM 32.0 °F 26.4 °F 24.8 °F 75% 30.12 in 10.0 mi SE 5.8 mph - N/A   Clear
3:15 AM 32.0 °F 24.2 °F 26.6 °F 80% 30.11 in 10.0 mi SE 9.2 mph - N/A   Clear
3:35 AM 32.0 °F 25.6 °F 26.6 °F 80% 30.09 in 10.0 mi SE 6.9 mph - N/A   Mostly Cloudy
4:15 AM 32.0 °F 26.4 °F 26.6 °F 80% 30.10 in 10.0 mi SSE 5.8 mph - N/A   Overcast
4:35 AM 32.0 °F 24.8 °F 26.6 °F 80% 30.09 in 10.0 mi SSE 8.1 mph - N/A   Overcast
4:55 AM 32.0 °F 25.6 °F 26.6 °F 80% 30.09 in 10.0 mi SE 6.9 mph - N/A   Overcast
5:15 AM 32.0 °F 25.6 °F 26.6 °F 80% 30.08 in 10.0 mi SE 6.9 mph - N/A   Overcast
5:35 AM 32.0 °F 25.6 °F 26.6 °F 80% 30.08 in 10.0 mi ESE 6.9 mph - N/A   Overcast
5:55 AM 32.0 °F 24.8 °F 28.4 °F 87% 30.07 in 5.0 mi ESE 8.1 mph - N/A Snow Light Snow
6:15 AM 32.0 °F 24.2 °F 28.4 °F 87% 30.06 in 2.5 mi SE 9.2 mph - N/A Snow Light Snow
6:35 AM 32.0 °F 23.6 °F 28.4 °F 87% 30.05 in 1.8 mi ESE 10.4 mph - N/A Snow Light Snow
6:55 AM 30.2 °F 20.8 °F 30.2 °F 100% 30.05 in 0.8 mi ESE 11.5 mph - N/A Snow Light Snow
7:15 AM 32.0 °F 22.1 °F 30.2 °F 93% 30.03 in 0.5 mi SE 13.8 mph 17.3 mph N/A Snow Snow
7:35 AM 32.0 °F 23.0 °F 30.2 °F 93% 30.01 in 0.8 mi ESE 11.5 mph - 0.01 in Snow Light Snow
8:15 AM 32.0 °F 24.2 °F 30.2 °F 93% 30.00 in 1.2 mi ESE 9.2 mph - 0.01 in Snow Light Snow
8:35 AM 32.0 °F 22.1 °F 30.2 °F 93% 29.97 in 2.0 mi ESE 13.8 mph - 0.01 in Snow Light Snow
8:55 AM 32.0 °F 23.0 °F 32.0 °F 100% 29.97 in 3.0 mi SE 11.5 mph - 0.01 in Rain Light Rain
9:15 AM 32.0 °F 23.6 °F 32.0 °F 100% 29.96 in 4.0 mi SE 10.4 mph 16.1 mph N/A   Light Drizzle
9:35 AM 32.0 °F 24.8 °F 30.2 °F 93% 29.95 in 5.0 mi SSE 8.1 mph 18.4 mph N/A   Overcast
9:55 AM 32.0 °F 23.0 °F 30.2 °F 93% 29.93 in 5.0 mi SE 11.5 mph 16.1 mph N/A   Overcast
10:15 AM 32.0 °F 23.6 °F 32.0 °F 100% 29.92 in 1.5 mi SE 10.4 mph - N/A   Overcast
10:35 AM 33.8 °F 24.8 °F 32.0 °F 93% 29.91 in 1.5 mi SE 12.7 mph 17.3 mph N/A   Overcast
10:55 AM 33.8 °F 25.3 °F 32.0 °F 93% 29.90 in 4.0 mi SE 11.5 mph 20.7 mph N/A   Overcast
11:15 AM 33.8 °F 25.3 °F 32.0 °F 93% 29.90 in 7.0 mi SSE 11.5 mph 17.3 mph N/A   Overcast
11:35 AM 33.8 °F 27.0 °F 32.0 °F 93% 29.90 in 5.0 mi SSE 8.1 mph 17.3 mph N/A   Overcast
11:55 AM 35.6 °F 27.5 °F 32.0 °F 87% 29.90 in 7.0 mi SSE 11.5 mph - N/A   Overcast
12:15 PM 35.6 °F 27.5 °F 32.0 °F 87% 29.89 in 4.0 mi SSE 11.5 mph 16.1 mph N/A   Overcast
12:35 PM 35.6 °F 26.6 °F 32.0 °F 87% 29.88 in 5.0 mi SSE 13.8 mph 17.3 mph N/A   Overcast
12:55 PM 35.6 °F 28.0 °F 32.0 °F 87% 29.87 in 5.0 mi SSE 10.4 mph - N/A   Light Drizzle
1:15 PM 35.6 °F 27.1 °F 32.0 °F 87% 29.86 in 4.0 mi SSE 12.7 mph - N/A Rain Light Rain
1:35 PM 35.6 °F 27.5 °F 32.0 °F 87% 29.85 in 4.0 mi SSE 11.5 mph - 0.01 in Rain Light Rain
1:55 PM 35.6 °F 29.9 °F 32.0 °F 87% 29.84 in 4.0 mi SE 6.9 mph - 0.02 in Rain Light Rain
2:15 PM 33.8 °F 27.0 °F 32.0 °F 93% 29.83 in 3.0 mi SE 8.1 mph - 0.02 in Rain Light Rain
2:35 PM 33.8 °F 26.4 °F 32.0 °F 93% 29.83 in 2.0 mi SE 9.2 mph - 0.06 in Rain Rain
2:55 PM 33.8 °F 28.6 °F 32.0 °F 93% 29.83 in 1.5 mi SE 5.8 mph - 0.09 in Rain Light Rain
3:15 PM 33.8 °F 25.8 °F 33.8 °F 100% 29.81 in 1.5 mi SE 10.4 mph - 0.02 in   Drizzle
3:35 PM 33.8 °F 25.8 °F 33.8 °F 100% 29.80 in 1.2 mi SE 10.4 mph - 0.04 in   Light Drizzle
3:55 PM 33.8 °F 26.4 °F 33.8 °F 100% 29.79 in 1.5 mi SE 9.2 mph - 0.06 in Rain Light Rain
4:15 PM 33.8 °F 27.0 °F 33.8 °F 100% 29.78 in 2.0 mi SE 8.1 mph - 0.03 in Rain Light Rain
4:35 PM 33.8 °F 26.4 °F 33.8 °F 100% 29.78 in 2.5 mi SE 9.2 mph - 0.04 in Rain Light Rain
4:55 PM 33.8 °F 26.4 °F 33.8 °F 100% 29.77 in 1.8 mi SE 9.2 mph - 0.07 in Rain Rain
5:15 PM 35.6 °F 28.6 °F 33.8 °F 93% 29.77 in 1.8 mi SE 9.2 mph - 0.02 in Rain Rain
5:35 PM 33.8 °F 25.3 °F 33.8 °F 100% 29.76 in 2.5 mi SE 11.5 mph - 0.04 in   Drizzle
5:55 PM 33.8 °F 28.6 °F 33.8 °F 100% 29.77 in 2.5 mi SE 5.8 mph - 0.04 in Rain Light Rain
6:15 PM 33.8 °F 27.0 °F 33.8 °F 100% 29.77 in 3.0 mi SE 8.1 mph - 0.01 in Rain Light Rain
6:35 PM 33.8 °F 26.4 °F 33.8 °F 100% 29.76 in 4.0 mi SE 9.2 mph - 0.01 in   Light Drizzle
6:55 PM 33.8 °F 27.7 °F 33.8 °F 100% 29.77 in 4.0 mi SSE 6.9 mph - 0.01 in   Overcast
7:15 PM 33.8 °F 27.7 °F 33.8 °F 100% 29.76 in 4.0 mi SE 6.9 mph - N/A   Overcast
7:35 PM 33.8 °F 27.7 °F 33.8 °F 100% 29.76 in 5.0 mi SE 6.9 mph - N/A   Overcast
7:55 PM 35.6 °F 29.9 °F 33.8 °F 93% 29.74 in 5.0 mi SE 6.9 mph - N/A   Light Drizzle
8:15 PM 35.6 °F 30.7 °F 33.8 °F 93% 29.74 in 5.0 mi SE 5.8 mph - 0.01 in Rain Light Rain
8:35 PM 35.6 °F 32.8 °F 33.8 °F 93% 29.76 in 4.0 mi SSE 3.5 mph - 0.01 in   Drizzle
9:15 PM 35.6 °F 32.8 °F 33.8 °F 93% 29.77 in 4.0 mi SSE 3.5 mph - 0.01 in   Light Drizzle
9:35 PM 35.6 °F 32.8 °F 33.8 °F 93% 29.76 in 4.0 mi SSE 3.5 mph - 0.01 in Rain Rain
9:55 PM 35.6 °F 31.7 °F 33.8 °F 93% 29.77 in 3.0 mi SSE 4.6 mph - 0.03 in Rain Light Rain
10:15 PM 35.6 °F 32.8 °F 33.8 °F 93% 29.77 in 5.0 mi SSE 3.5 mph - N/A   Overcast
10:35 PM 35.6 °F 32.8 °F 33.8 °F 93% 29.77 in 4.0 mi SE 3.5 mph - N/A   Overcast
10:55 PM 35.6 °F - 33.8 °F 93% 29.77 in 3.0 mi Calm Calm - N/A   Overcast
11:15 PM 35.6 °F - 33.8 °F 93% 29.77 in 2.0 mi Calm Calm - N/A   Overcast
11:35 PM 35.6 °F - 33.8 °F 93% 29.77 in 1.5 mi Calm Calm - N/A   Overcast
11:55 PM 35.6 °F - 33.8 °F 93% 29.76 in 1.8 mi Calm Calm - N/A   Overcast